Simultaneous Nadir Overpasses (SNOs) Predictions

Prediction of SNOs between NPP and GCOM-C Satellite Orbit:

Table of predicted SNOs for the next 14.0 days since TLE Epoch: 11/23/2024
Index Date (NPP) Time (NPP) Lat,Lon (NPP) SZA (NPP ) Date (GCOM-C) Time (GCOM-C) Lat,Lon (GCOM-C) SZA (GCOM-C ) Distance(km) Time Diff (sec)
1 11/29/2024 03:09:08 70.19, 128.83 91.63 11/29/2024 03:10:15 70.14, 131.14 91.58 87.56 67
2 11/29/2024 03:59:43 -69.75, -63.18 88.82 11/29/2024 04:00:54 -69.66, -62.19 88.91 39.37 71
3 11/29/2024 04:50:22 69.34, 104.72 90.78 11/29/2024 04:51:27 69.33, 104.73 90.77 1.18 65
4 11/29/2024 05:41:05 -69.32, -87.94 89.24 11/29/2024 05:41:57 -69.33, -87.90 89.23 1.87 52
5 11/29/2024 06:31:51 69.28, 79.42 90.74 11/29/2024 06:32:25 69.27, 79.41 90.72 1.61 34
6 11/29/2024 07:22:34 -69.26,-113.23 89.28 11/29/2024 07:22:55 -69.26,-113.22 89.28 0.66 21
7 11/29/2024 08:13:20 69.22, 54.13 90.69 11/29/2024 08:13:23 69.20, 54.09 90.67 2.66 3
8 11/29/2024 09:04:03 -69.20,-138.52 89.33 11/29/2024 09:03:53 -69.20,-138.54 89.33 0.69 10
9 11/29/2024 09:54:49 69.16, 28.84 90.64 11/29/2024 09:54:20 69.19, 28.84 90.67 3.46 29
10 11/29/2024 10:45:32 -69.14,-163.82 89.38 11/29/2024 10:44:51 -69.14,-163.86 89.38 1.86 41
11 11/29/2024 11:36:18 69.11, 3.54 90.60 11/29/2024 11:35:18 69.13, 3.51 90.62 3.13 60
12 11/29/2024 12:27:01 -69.09, 170.89 89.42 11/29/2024 12:25:49 -69.08, 170.81 89.43 3.03 72
13 11/29/2024 13:17:36 68.46, -20.96
